Weather in Zaafarana

Egypt     29°06′46″N   32°39′33″E
temp.,
°C
wind,
m/s
gust,
m/s
humid.,
%
clouds,
%
prec.,
mm/h
press.,
hPa
HPBL,
m
26 june, sun
sun2623:00+25nnw1215760 0.0 1009483
02:00+24nnw1112760 0.0 1009599
05:00+24n1010740 0.0 1009576
08:00+24n1010740 0.0 1011561
11:00+25nnw810670 0.0 1010224
14:00+27nnw913590 0.0 1008148
17:00+28nnw711530 0.0 100781
20:00+28nnw710520 0.0 100874
27 june, mon
mon2723:00+27nnw1014590 0.0 1009201
02:00+26n1014720 0.0 1008282
05:00+25n1012770 0.0 1009314
08:00+25n911750 0.0 1010280
11:00+25n610710 0.0 1009158
14:00+27n46600 0.0 100754
17:00+28n34610 0.0 100523
20:00+28nnw1016640 0.0 1007171
28 june, tue
tue2823:00+26n1014710 0.0 1008251
02:00+25n811750 0.0 1008259
05:00+25nnw79780 0.0 1007313
08:00+25n78760 0.0 1008328
11:00+25n78700 0.0 1007158
14:00+26n58620 0.0 100579
17:00+28nw44580 0.0 100524
20:00+29w44540 0.0 100518
29 june, wed
wed2923:00+27n1115620 0.0 1006223
02:00+26n912730 0.0 1006234
05:00+25n911800 0.0 1007269
08:00+25n79810 0.0 1007237
11:00+25n79790 0.0 1007142
14:00+26n67710 0.0 100560
17:00+28nnw55570 0.0 100428
20:00+29nw33490 0.0 100513
30 june, thu
thu3023:00+27n912600 0.0 1006150
02:00+26n913690 0.0 1006239
05:00+26n79740 0.0 1006189
08:00+26nnw68730 0.0 1007133
11:00+25n67710 0.0 100778
14:00+27nnw56660 0.0 100549
17:00+29nnw44530 0.0 100417
20:00+29nw55560 0.0 100520